Weather History for TNCB - June, 2014

Change the Weather History Date:

Tuesday, June 24, 2014

  Actual Average Record
Temperature  
Mean Temperature 84 °F -  
Max Temperature 89 °F 87 °F 93 °F (2005)
Min Temperature 80 °F 81 °F 35 °F (2008)
Cooling Degree Days 20    
Growing Degree Days 34 (Base 50)    
Moisture  
Dew Point 75 °F    
Average Humidity 74    
Maximum Humidity 84    
Minimum Humidity 62    
Precipitation  
Precipitation 0.00 in - - ()
Sea Level Pressure  
Sea Level Pressure 29.98 in    
Wind  
Wind Speed 19 mph ()    
Max Wind Speed 24 mph    
Max Gust Speed 32 mph    
Visibility 6.2 miles    
Events      
Averages and records for this station are not official NWS values.
T = Trace of Precipitation, MM = Missing Value Source: Averaged Metar Reports

Daily Weather History Graph

Daily Weather History Graph

Search for Another Location

Airport or City:

Trip Planner

Search our weather history database for the weather conditions in past years. The results will help you decide how hot, cold, wet, or windy it might be!

Date:

Astronomy

Jun. 24, 2014 Rise Set
Actual Time 6:10 AM AST 7:00 PM AST
Civil Twilight 5:47 AM AST 7:24 PM AST
Nautical Twilight 5:19 AM AST 7:51 PM AST
Astronomical Twilight 4:51 AM AST 8:19 PM AST
Moon 3:55 AM AST (6/24) 4:52 PM AST (6/24)
Length of Visible Light 13h 36m
Length of Day
12h 50m
Waning Crescent, 7% of the Moon is Illuminated
Jun 24
Waning Crescent
Jun 27
New
Jul 5
First Quarter
Jul 12
Full
Jul 18
Last Quarter

Hourly Weather History & Observations

Time (AST) Temp. Heat Index Dew Point Humidity Pressure Visibility Wind Dir Wind Speed Gust Speed Precip Events Conditions
12:00 AM 82.4 °F 89.5 °F 75.2 °F 79% 30.01 in - ENE 18.4 mph - N/A   Unknown
1:00 AM 82.4 °F 89.5 °F 75.2 °F 79% 29.98 in - ENE 20.7 mph - N/A   Unknown
2:00 AM 82.4 °F 89.5 °F 75.2 °F 79% 29.98 in - ENE 23.0 mph - N/A   Unknown
3:00 AM 80.6 °F 86.2 °F 75.2 °F 84% 29.95 in - ENE 19.6 mph - N/A   Unknown
4:00 AM 80.6 °F 86.2 °F 75.2 °F 84% 29.95 in - ENE 23.0 mph - N/A   Unknown
5:00 AM 80.6 °F 86.2 °F 75.2 °F 84% 29.95 in - ENE 19.6 mph - N/A   Unknown
6:00 AM 80.6 °F 85.4 °F 73.4 °F 79% 29.95 in - ENE 24.2 mph - N/A   Unknown
6:55 AM 82.4 °F 89.5 °F 75.2 °F 79% 29.98 in 6.2 mi ENE 18.4 mph - N/A   Partly Cloudy
8:00 AM 84.2 °F 92.3 °F 75.2 °F 74% 30.01 in 6.2 mi East 17.3 mph - N/A   Scattered Clouds
9:00 AM 84.2 °F 92.3 °F 75.2 °F 74% 30.01 in 6.2 mi East 21.9 mph - N/A   Scattered Clouds
10:00 AM 86.0 °F 93.4 °F 73.4 °F 66% 30.04 in - East 24.2 mph - N/A   Unknown
11:00 AM 87.8 °F 97.6 °F 75.2 °F 66% 30.01 in 6.2 mi East 20.7 mph 32.2 mph N/A   Scattered Clouds
12:00 PM 89.6 °F 99.8 °F 75.2 °F 62% 30.01 in - ENE 24.2 mph - N/A   Unknown
1:00 PM 87.8 °F 97.6 °F 75.2 °F 66% 30.01 in - East 23.0 mph - N/A   Unknown
2:00 PM 87.8 °F 97.6 °F 75.2 °F 66% 29.98 in 6.2 mi East 21.9 mph - N/A   Scattered Clouds
3:00 PM 87.8 °F 97.6 °F 75.2 °F 66% 29.95 in 6.2 mi ENE 24.2 mph - N/A   Scattered Clouds
4:00 PM 87.8 °F 97.6 °F 75.2 °F 66% 29.95 in 6.2 mi ENE 24.2 mph - N/A   Scattered Clouds
5:00 PM 86.0 °F 95.1 °F 75.2 °F 70% 29.92 in 6.2 mi ENE 21.9 mph - N/A   Scattered Clouds
6:00 PM 84.2 °F 92.3 °F 75.2 °F 74% 29.95 in 6.2 mi ENE 21.9 mph - N/A   Partly Cloudy
7:00 PM 84.2 °F 90.9 °F 73.4 °F 70% 29.95 in 6.2 mi ENE 20.7 mph - N/A   Scattered Clouds
8:00 PM 82.4 °F 88.2 °F 73.4 °F 74% 29.95 in 6.2 mi NE 20.7 mph - N/A   Scattered Clouds
9:00 PM 82.4 °F 89.5 °F 75.2 °F 79% 29.98 in - ENE 18.4 mph - N/A   Unknown
10:00 PM 82.4 °F 89.5 °F 75.2 °F 79% 29.98 in - NE 19.6 mph - N/A   Unknown
10:55 PM 82.4 °F 89.5 °F 75.2 °F 79% 30.01 in - NE 17.3 mph - N/A   Unknown